This demonstration page uses our WeatherBlox Daily Observations layout. Learn more.

40.92945, -100.16068

Hourly Observations for December 12, 2019

Temp ( °F °C ) Dew Point ( °F °C ) Humidity (%) Winds ( mph kmh ) Pressure ( in mb ) Visibility ( mi km ) Precip ( " mm )
12:15 am 00:15 Clear 33 0.4 29 -1.5 87 87 SSW 7 11 30.02 1017 10 16.0934 0 0
12:35 am 00:35 Clear 35 1.6 29 -1.4 81 81 S 9 15 30 1016 10 16.0934 0 0
12:55 am 00:55 Clear 34 1.3 30 -1.2 84 84 SW 5 7 30 1016 10 16.0934 0 0
1:15 am 01:15 Clear 33 0.8 30 -1.3 86 86 WNW 8 13 30.01 1016 10 16.0934 0 0
1:35 am 01:35 Clear 32 0 29 -1.9 87 87 WNW 8 13 30.02 1016 10 16.0934 0 0
1:55 am 01:55 Clear 30 -1.2 27 -2.6 90 90 WNW 5 7 30.03 1017 10 16.0934 0 0
2:15 am 02:15 Clear 29 -1.5 26 -3.1 89 89 WNW 5 7 30.04 1017 10 16.0934 0 0
2:35 am 02:35 Clear 29 -1.8 26 -3.2 90 90 WNW 7 11 30.04 1017 10 16.0934 0 0
2:55 am 02:55 Clear 28 -2.2 26 -3.5 91 91 NW 5 7 30.06 1018 10 16.0934 0 0
3:15 am 03:15 Clear 26 -3.2 24 -4.3 92 92 NW 9 15 30.07 1018 10 16.0934 0 0
3:35 am 03:35 Clear 26 -3.3 24 -4.6 91 91 NW 7 11 30.07 1018 10 16.0934 0 0
3:55 am 03:55 Clear 27 -3 24 -4.2 92 92 WNW 12 19 30.08 1019 10 16.0934 0 0
4:15 am 04:15 Clear 28 -2 25 -4 86 86 WNW 14 22 30.07 1018 10 16.0934 0 0
4:35 am 04:35 Clear 28 -2.2 25 -4.1 87 87 WNW 15 24 30.07 1018 10 16.0934 0 0
4:55 am 04:55 Clear 28 -2.1 25 -4.1 86 86 WNW 15 24 30.08 1019 10 16.0934 0 0
5:15 am 05:15 Clear 27 -2.6 24 -4.3 88 88 WNW 12 19 30.08 1019 10 16.0934 0 0
5:35 am 05:35 Clear 27 -2.8 24 -4.5 88 88 WNW 13 20 30.09 1019 10 16.0934 0 0
5:55 am 05:55 Clear 26 -3.1 24 -4.6 90 90 WNW 8 13 30.11 1020 10 16.0934 0 0
6:15 am 06:15 Clear 27 -2.7 24 -4.5 88 88 W 9 15 30.11 1020 10 16.0934 0 0
6:35 am 06:35 Clear 27 -3 24 -4.7 88 88 W 10 17 30.12 1020 10 16.0934 0 0
6:55 am 06:55 Clear 27 -2.8 24 -4.5 88 88 WNW 10 17 30.13 1020 10 16.0934 0 0
7:15 am 07:15 Clear 27 -2.7 24 -4.5 88 88 WNW 9 15 30.13 1020 10 16.0934 0 0
7:35 am 07:35 Clear 27 -2.6 24 -4.5 87 87 WNW 7 11 30.14 1021 10 16.0934 0 0
7:55 am 07:55 Sunny 28 -2.2 24 -4.3 86 86 WNW 8 13 30.14 1021 10 16.0934 0 0
8:15 am 08:15 Sunny 28 -2.2 24 -4.4 85 85 WNW 9 15 30.15 1021 10 16.0934 0 0
8:35 am 08:35 Sunny 28 -2 25 -4 86 86 WNW 8 13 30.16 1021 10 16.0934 0 0
8:55 am 08:55 Sunny 30 -1.1 25 -3.7 83 83 WNW 9 15 30.16 1021 10 16.0934 0 0
9:15 am 09:15 Sunny 31 -0.3 26 -3.2 81 81 WNW 8 13 30.15 1021 10 16.0934 0 0
9:35 am 09:35 Sunny 32 0.1 27 -2.7 82 82 NW 7 11 30.15 1021 10 16.0934 0 0
9:55 am 09:55 Sunny 33 0.8 27 -2.7 78 78 W 8 13 30.14 1021 10 16.0934 0 0
10:15 am 10:15 Sunny 34 1.3 28 -2.5 76 76 WNW 7 11 30.13 1020 10 16.0934 0 0
10:35 am 10:35 Sunny 35 1.9 27 -2.6 72 72 WNW 5 7 30.12 1020 10 16.0934 0 0
10:55 am 10:55 Sunny 36 2 27 -2.7 71 71 Calm 30.12 1020 10 16.0934 0 0
11:15 am 11:15 Sunny 37 2.5 28 -2.5 70 70 Calm 30.1 1019 10 16.0934 0 0
11:35 am 11:35 Sunny 37 2.8 27 -2.6 68 68 NNW 3 6 30.1 1019 10 16.0934 0 0
11:55 am 11:55 Sunny 38 3.5 29 -1.9 68 68 W 5 7 30.09 1019 10 16.0934 0 0
12:15 pm 12:15 Sunny 39 3.7 29 -1.9 67 67 Calm 30.08 1019 10 16.0934 0 0
12:35 pm 12:35 Sunny 40 4.5 29 -1.8 64 64 Calm 30.05 1018 10 16.0934 0 0
12:55 pm 12:55 Sunny 42 5.3 30 -1.2 63 63 ESE 3 6 30.04 1017 10 16.0934 0 0
1:15 pm 13:15 Mostly Cloudy 41 5.2 30 -1 65 65 Calm 30.04 1017 10 16.0934 0 0
1:35 pm 13:35 Partly Cloudy 43 6.2 31 -0.5 63 63 SSW 3 6 30.02 1016 10 16.0934 0 0
1:55 pm 13:55 Partly Cloudy 44 6.5 31 -0.4 62 62 SE 3 6 30 1016 10 16.0934 0 0
2:15 pm 14:15 Partly Cloudy 44 6.6 31 -0.3 62 62 SSE 5 7 30 1016 10 16.0934 0 0
2:35 pm 14:35 Sunny 46 7.5 32 0 59 59 SE 7 11 29.98 1015 10 16.0934 0 0
2:55 pm 14:55 Sunny 46 8 32 0 57 57 S 8 13 29.98 1015 10 16.0934 0 0
3:15 pm 15:15 Sunny 46 7.8 32 0 58 58 SSE 7 11 29.98 1015 10 16.0934 0 0
3:35 pm 15:35 Sunny 47 8.5 32 0 55 55 SSW 8 13 29.98 1015 10 16.0934 0 0
3:55 pm 15:55 Sunny 45 7.3 32 -0.2 59 59 SSW 9 15 29.99 1015 10 16.0934 0 0
4:15 pm 16:15 Partly Cloudy 42 5.8 31 -0.5 64 64 SSW 6 9 30.01 1016 10 16.0934 0 0
4:35 pm 16:35 Cloudy 42 5.5 31 -0.5 66 66 S 6 9 30.01 1016 10 16.0934 0 0
4:55 pm 16:55 Cloudy 41 5 31 -0.5 68 68 SSE 6 9 30.02 1017 10 16.0934 0 0
5:15 pm 17:15 Cloudy 39 4.1 31 -0.6 72 72 SSE 7 11 30.02 1016 10 16.0934 0 0
5:35 pm 17:35 Cloudy 39 4.1 30 -1 70 70 SE 7 11 30.02 1016 10 16.0934 0 0
5:55 pm 17:55 Cloudy 39 3.8 30 -1.1 71 71 SE 6 9 30.02 1017 10 16.0934 0 0
6:15 pm 18:15 Partly Cloudy 38 3.3 29 -1.5 71 71 SE 6 9 30.02 1017 10 16.0934 0 0
6:35 pm 18:35 Clear 35 1.9 29 -1.5 78 78 ESE 5 7 30.04 1017 10 16.0934 0 0
6:55 pm 18:55 Clear 35 1.9 29 -1.6 78 78 ESE 3 6 30.04 1017 10 16.0934 0 0
7:15 pm 19:15 Clear 32 0.2 28 -2.2 84 84 ESE 5 7 30.05 1018 10 16.0934 0 0
7:35 pm 19:35 Clear 34 1 28 -2 81 81 SE 3 6 30.05 1018 10 16.0934 0 0
7:55 pm 19:55 Clear 30 -1 27 -2.7 88 88 SE 7 11 30.06 1018 10 16.0934 0 0
8:15 pm 20:15 Clear 32 -0.1 28 -2.4 85 85 SSE 6 9 30.05 1018 10 16.0934 0 0
8:35 pm 20:35 Clear 32 0 28 -2.3 85 85 SSE 5 7 30.05 1017 10 16.0934 0 0
8:55 pm 20:55 Clear 31 -0.6 27 -2.7 86 86 SSE 9 15 30.03 1017 10 16.0934 0 0
9:15 pm 21:15 Clear 33 0.7 29 -1.6 85 85 SSE 8 13 30.01 1016 10 16.0934 0 0
9:35 pm 21:35 Clear 33 0.7 29 -1.5 85 85 SE 9 15 30.01 1016 10 16.0934 0 0
9:55 pm 21:55 Partly Cloudy 33 0.4 29 -1.7 86 86 SE 7 11 30 1016 10 16.0934 0 0
10:15 pm 22:15 Mostly Cloudy 32 0 29 -1.9 87 87 SE 5 7 30 1016 10 16.0934 0 0
10:35 pm 22:35 Cloudy 32 0.2 29 -1.6 88 88 S 8 13 29.99 1016 10 16.0934 0 0
10:55 pm 22:55 Mostly Cloudy 34 1.2 29 -1.5 82 82 SSE 5 7 29.98 1015 10 16.0934 0 0
11:15 pm 23:15 Partly Cloudy 35 1.5 29 -1.6 80 80 SSE 7 11 29.96 1015 10 16.0934 0 0
11:35 pm 23:35 Clear 34 0.9 29 -1.7 83 83 SSE 6 9 29.96 1014 10 16.0934 0 0
11:55 pm 23:55 Clear 34 1.1 29 -1.7 82 82 SSE 3 6 29.96 1014 10 16.0934 0 0

Powered by AerisWeather